Location: Les Gervais
(43.5667°N, 5.4000°E)
Time: 22:06:47
(UTC+00:00)

Daily predictions for brighter satellites

Satellite Brightness Start Highest point End
(mag) Time Altitude Azimuth Time Altitude Azimuth Time Altitude Azimuth
Cosmos 2263 Rocket 3.4 17:52:07 10° SW 17:57:26 46° WNW 18:02:51 10° NNE
Cosmos 1939 Rocket 3.2 17:56:57 10° S 18:01:05 79° WSW 18:05:16 10° NNW
USA 116 4.3 17:57:44 10° NNE 18:01:16 37° E 18:05:11 10° SSE
Cosmos 1844 Rocket 3.0 17:56:41 10° S 18:01:54 43° ESE 18:07:11 10° NE
Cosmos 1842 4.0 17:59:14 10° NNW 18:03:03 57° W 18:06:51 10° S
Cosmos 372 Rocket 4.0 17:58:33 10° SSW 18:03:46 78° ESE 18:09:00 10° NNE
Cosmos 1707 2.8 18:02:15 10° N 18:06:01 52° E 18:09:46 10° SSE
CZ-2C R/B 3.3 18:04:25 10° WSW 18:06:59 17° SSW 18:09:27 10° SSE
NOSS 3-2 (C) 4.4 18:00:03 10° NNW 18:07:14 48° NE 18:15:19 10° ESE
Cosmos 1844 4.1 18:04:06 10° S 18:09:22 40° ESE 18:14:36 10° NE
Cosmos 2034 Rocket 4.5 18:04:03 10° SSE 18:09:53 40° E 18:15:41 10° NNE
ISS -2.2 18:07:34 10° W 18:10:38 31° NNW 18:13:43 10° NE
NOSS 3-4 (A) 4.3 18:06:04 10° SSE 18:10:47 26° ESE 18:15:42 10° ENE
NOSS 3-4 (C) 4.3 18:06:12 10° SSE 18:10:54 25° ESE 18:15:48 10° ENE
USA 186 3.8 18:11:03 11° E 18:12:22 13° ENE 18:13:55 10° NE
Meteor 1-12 Rocket 4.3 18:07:24 10° S 18:13:11 61° E 18:18:53 10° NNE
Cosmos 1300 Rocket 3.6 18:14:13 10° S 18:18:33 61° E 18:22:56 10° NNE
Okean 1 Rocket 4.2 18:18:25 10° SE 18:21:55 23° E 18:25:26 10° NE
Sich 1 Rocket 3.9 18:18:23 10° SSW 18:22:53 75° W 18:27:28 10° N
Cosmos 2298 Rocket 4.0 18:19:43 10° SSW 18:25:03 81° ESE 18:30:24 10° NNE
CENTAUR R/B 3.4 18:18:28 10° NNW 18:26:24 58° NE 18:34:46 11° SE
Cosmos 1833 Rocket 4.4 18:23:58 10° N 18:27:31 17° NE 18:30:12 12° ENE
CSL-04 Debris 4.1 18:23:53 10° SSE 18:29:15 77° ENE 18:34:39 10° NNW
CSL-04 Rocket 3.7 18:25:47 10° SSE 18:31:12 76° ENE 18:36:44 10° N
Cosmos 1766 4.4 18:29:51 10° SE 18:32:56 22° E 18:36:02 10° NE
ATLAS 2AS CENTAUR R/B 3.4 18:25:51 10° S 18:33:04 41° ESE 18:40:20 10° NE
Okean 2 Rocket 3.1 18:28:36 10° S 18:33:05 90° ESE 18:37:34 10° N
YAOGAN 1 3.0 18:29:34 10° S 18:33:51 67° WSW 18:38:11 10° NNW
Cosmos 1025 Rocket 3.0 18:31:04 10° N 18:35:29 80° E 18:39:53 10° S
ATLAS 3B R/B 3.8 18:32:31 10° NNW 18:38:18 28° NE 18:42:35 16° E
Abrixas rocket 2.3 18:38:19 10° WNW 18:41:05 47° NNE 18:42:11 29° ENE
SWAS 4.4 18:37:00 10° NNW 18:41:17 64° ENE 18:44:39 16° SE
CREW DRAGON DEMO-1 DEB 3.4 18:40:14 10° NW 18:43:09 43° NNE 18:44:16 29° ENE
Cosmos 1536 Rocket 3.5 18:40:48 10° N 18:45:17 75° E 18:49:45 10° SSE
Cosmos 1125 Rocket 3.4 18:40:24 10° SSW 18:45:41 76° ESE 18:51:01 10° NNE
SJ-6B 3.6 18:48:31 26° E 18:49:14 28° ENE 18:52:31 10° N
CZ-4 R/B 3.2 18:47:42 10° SSW 18:51:32 34° W 18:55:22 10° NNW
SJ-11-01 4.5 18:47:48 10° S 18:52:30 75° WSW 18:57:12 10° NNW
CZ-2C R/B 3.7 18:48:15 10° S 18:53:32 64° W 18:59:08 10° NNW
Cosmos 1464 Rocket 4.3 18:47:51 10° SSW 18:53:57 70° W 19:00:09 10° N
USA 238 DEB 4.0 18:48:28 10° NW 18:55:44 78° WSW 19:03:14 10° SSE
USA 238 4.0 18:48:34 10° NW 18:55:50 78° WSW 19:03:18 10° SSE
Cosmos 2285 Rocket 3.9 18:50:05 10° S 18:56:20 73° ESE 19:02:41 10° NNE
Cosmos 1674 2.6 18:53:47 10° N 18:57:38 68° E 19:00:17 19° SSE
Cosmos 2026 Rocket 4.4 18:52:25 10° N 18:58:28 42° ENE 19:02:16 21° SE
Cosmos 1092 Rocket 4.1 18:52:38 10° N 18:58:42 55° ENE 19:04:17 12° SSE
MOS 1 Rocket 3.2 18:59:42 10° N 19:04:04 74° WNW 19:08:19 10° SSW
TSX-5 3.8 19:03:57 10° SSW 19:07:37 63° ESE 19:12:19 10° NNE
ARGOS 3.2 19:03:45 10° S 19:09:07 79° WSW 19:14:32 10° NNW
Cosmos 1340 Rocket 4.2 19:15:11 24° NE 19:15:11 24° NE 19:17:02 10° NNE
CZ-2C R/B 2.7 19:08:52 10° NNE 19:14:25 63° E 19:19:59 10° S
Cosmos 1733 3.1 19:13:47 39° SSE 19:15:00 63° E 19:18:48 10° NNE
MOS 1 4.3 19:13:05 24° SSE 19:16:32 66° ENE 19:22:11 10° N
Lacrosse 5 rocket 3.7 19:16:17 10° NNW 19:19:04 16° NNE 19:20:43 14° NE
Cosmos 2082 Rocket 3.5 19:16:24 10° N 19:20:51 23° NE 19:21:17 23° ENE
Shenzhou-11 Module 4.5 19:20:25 10° WSW 19:20:33 11° WSW 19:20:33 11° WSW
BREEZE-M R/B 4.3 19:12:29 10° WSW 19:23:03 62° NNW 19:24:25 35° NE
BREEZE-M DEB (TANK) 3.6 19:19:43 10° WNW 19:23:09 60° SSW 19:27:36 27° SE
DMSP B5D2-2 4.0 19:18:58 10° NNE 19:24:15 66° ESE 19:29:29 10° S
Cosmos 494 Rocket 4.4 19:20:46 10° NNW 19:25:58 61° WSW 19:29:53 18° S
Cosmos 1805 3.6 19:23:03 10° SSW 19:26:55 63° W 19:30:49 10° N
OBJECT-B 2.8 19:28:48 20° NNE 19:28:48 20° NNE 19:30:03 10° N
Ariane Rocket 3.0 19:28:06 26° S 19:30:59 83° WSW 19:36:06 10° NNW
SL-08 RB Rocket 4.1 19:27:52 19° S 19:31:06 63° W 19:35:36 10° NNW
Milstar 3 Cent rocket 3.9 19:27:29 10° SW 19:31:57 18° S 19:32:38 18° S
H-2A R/B 3.5 19:28:02 10° SSW 19:32:35 35° W 19:37:17 10° NNW
USA 234 4.1 19:38:13 30° SSE 19:38:13 30° SSE 19:42:11 10° SSW
Cosmos 1269 Rocket 4.0 19:32:37 10° NNW 19:37:58 87° WSW 19:39:33 47° SSE
MetOp-A 4.1 19:40:20 38° S 19:42:30 83° WSW 19:47:54 10° NNW
USA 186 3.2 19:42:34 35° WSW 19:42:43 35° W 19:45:46 10° NNW
Cosmos 1626 2.8 19:39:12 10° N 19:42:02 50° NNW 19:42:02 50° NNW
COSMOS 2406 3.1 19:41:31 10° NNW 19:47:13 75° ENE 19:47:56 65° ESE
ISS -1.4 19:45:34 10° NW 19:47:46 20° N 19:47:46 20° N
Cosmos 2278 Rocket 2.8 19:44:06 10° S 19:51:32 42° NE 19:55:18 10° NNE
Meteor 1-22 Rocket 4.4 19:48:25 10° SSW 19:54:18 76° W 20:00:24 10° N
Lacrosse 4 Rocket 3.2 19:50:55 10° NNW 19:52:52 23° N 19:52:52 23° N
Meteor 2-5 Rocket 4.3 19:51:51 10° NNW 19:57:24 55° W 20:00:46 24° SSW
Meteor 1-24 Rocket 3.9 19:54:13 10° NNW 19:59:47 69° W 20:01:37 43° SSW
NOSS 3-4 (A) 3.9 19:55:20 10° SW 20:01:09 58° NW 20:07:24 10° NNE
NOSS 3-4 (C) 3.9 19:55:26 10° SW 20:01:15 59° NW 20:07:29 10° NNE
Resurs 01 Rocket 2.8 20:03:26 36° N 20:03:26 36° N 20:06:10 10° N
SL-14 R/B 4.4 19:58:59 10° NNW 20:01:55 43° NW 20:01:55 43° NW
Meteor 2-19 Rocket 4.3 19:57:53 10° N 20:03:47 68° ENE 20:03:47 68° ENE
Cosmos 1833 Rocket 2.7 20:06:37 10° NNW 20:11:54 78° NNW 20:11:54 78° NNW
Cosmos 2251 Rocket 4.3 20:09:55 10° NNW 20:13:44 43° NNE 20:13:44 43° NNE
CENTAUR R/B 4.1 20:09:28 10° NW 20:17:09 43° WSW 20:22:00 24° S
SPOT 3 Rocket 3.9 20:20:50 61° WNW 20:20:50 61° WNW 20:25:30 10° NNW
ATLAS 2AS CENTAUR R/B 3.6 20:16:08 10° SW 20:23:56 56° NW 20:31:40 10° NNE
ATLAS 3B R/B 2.6 20:22:49 10° NW 20:29:45 83° SW 20:29:50 83° SW
Cosmos 1655 Rocket 4.2 20:32:26 10° N 20:37:50 67° NNW 20:37:50 67° NNW
Lacrosse 5 rocket 4.1 20:55:04 10° NW 20:56:20 18° NNW 20:56:20 18° NNW
Cosmos 2082 Rocket 3.5 20:59:49 10° NNW 21:03:08 35° NW 21:03:08 35° NW
Cosmos 2278 Rocket 4.3 21:33:01 21° WNW 21:34:16 22° NW 21:38:38 10° N
